TimeEDT,TemperatureF,Dew PointF,Humidity,Sea Level PressureIn,VisibilityMPH,Wind Direction,Wind SpeedMPH,Gust SpeedMPH,PrecipitationIn,Events,Conditions,WindDirDegrees,DateUTC
12:53 AM,26.1,21.0,81,30.05,10.0,Calm,Calm,-,N/A,,Clear,0,2013-03-24 04:53:00
1:53 AM,23.0,19.0,85,30.05,10.0,Calm,Calm,-,N/A,,Clear,0,2013-03-24 05:53:00
2:53 AM,24.1,19.9,84,30.05,9.0,Calm,Calm,-,N/A,,Clear,0,2013-03-24 06:53:00
3:53 AM,25.0,21.0,85,30.04,8.0,Calm,Calm,-,N/A,,Clear,0,2013-03-24 07:53:00
4:53 AM,26.1,21.0,81,30.02,8.0,Calm,Calm,-,N/A,,Clear,0,2013-03-24 08:53:00
5:53 AM,26.1,23.0,88,30.01,8.0,NE,3.5,-,N/A,,Clear,40,2013-03-24 09:53:00
6:53 AM,27.0,23.0,85,29.98,10.0,NE,5.8,-,N/A,,Clear,50,2013-03-24 10:53:00
7:53 AM,28.0,23.0,81,29.96,10.0,NE,5.8,-,N/A,,Clear,50,2013-03-24 11:53:00
8:53 AM,28.0,23.0,81,29.96,10.0,NE,5.8,-,N/A,,Partly Cloudy,50,2013-03-24 12:53:00
9:53 AM,28.9,24.1,82,29.95,10.0,NE,3.5,-,N/A,,Overcast,50,2013-03-24 13:53:00
10:53 AM,30.9,24.1,76,29.91,10.0,NE,9.2,-,N/A,,Overcast,50,2013-03-24 14:53:00
11:53 AM,33.1,23.0,66,29.88,10.0,ENE,8.1,-,N/A,,Overcast,60,2013-03-24 15:53:00
12:53 PM,35.1,23.0,61,29.84,10.0,East,12.7,19.6,N/A,,Mostly Cloudy,80,2013-03-24 16:53:00
1:53 PM,37.0,24.1,59,29.82,10.0,East,10.4,18.4,N/A,,Mostly Cloudy,80,2013-03-24 17:53:00
2:53 PM,37.0,23.0,57,29.79,10.0,ENE,12.7,24.2,N/A,,Mostly Cloudy,60,2013-03-24 18:53:00
3:53 PM,39.0,23.0,53,29.75,10.0,ENE,11.5,20.7,N/A,,Overcast,60,2013-03-24 19:53:00
4:53 PM,37.0,24.1,59,29.70,10.0,ENE,15.0,26.5,N/A,,Overcast,60,2013-03-24 20:53:00
5:53 PM,36.0,24.1,62,29.68,10.0,ENE,16.1,29.9,N/A,,Overcast,60,2013-03-24 21:53:00
6:53 PM,35.1,23.0,61,29.68,10.0,ENE,6.9,17.3,N/A,,Overcast,60,2013-03-24 22:53:00
7:53 PM,34.0,23.0,64,29.68,10.0,NE,13.8,23.0,N/A,,Mostly Cloudy,40,2013-03-24 23:53:00
8:53 PM,33.1,21.9,64,29.68,10.0,NE,15.0,24.2,N/A,,Overcast,40,2013-03-25 00:53:00
9:53 PM,32.0,23.0,69,29.69,10.0,NE,10.4,20.7,N/A,,Overcast,50,2013-03-25 01:53:00
10:53 PM,30.9,21.9,69,29.70,10.0,NE,9.2,19.6,N/A,,Overcast,50,2013-03-25 02:53:00
11:53 PM,30.9,21.9,69,29.70,10.0,NNE,12.7,19.6,N/A,,Overcast,30,2013-03-25 03:53:00